DW8913 Weather Reports


time (UTC)temp
F
wind
direction
speed
knots
gust
knots
rain 1hr
in
rain 24hr
in
rain mn
in
humidity
%
barometer
mb
20260505053112 56 205 1.7 4.3 0.00 0.00 0.00 87 1011.2
20260505051557 56 151 0.9 4.3 0.00 0.00 0.00 87 1011.4
20260505041602 56 103 1.7 5.2 0.00 0.00 0.00 86 1011.6
20260505040028 56 113 0.9 5.2 0.00 0.00 0.00 85 1011.5
20260505034612 56 156 1.7 6.1 0.00 0.00 0.00 83 1011.5
20260505033041 57 114 2.6 7.0 0.00 0.00 0.00 83 1011.5
20260505031516 57 207 1.7 4.3 0.00 0.00 0.00 83 1011.6
20260505030055 57 129 2.6 7.8 0.00 0.00 0.00 83 1011.7
20260505024524 56 108 1.7 7.8 0.00 0.00 0.00 84 1011.7
20260505023105 56 138 2.6 7.0 0.00 0.00 0.00 84 1011.8
20260505021533 56 76 2.6 8.7 0.00 0.00 0.00 85 1011.9
20260505020108 56 202 1.7 6.1 0.00 0.00 0.00 85 1011.8
20260505014537 56 81 0.9 5.2 0.00 0.00 0.00 84 1011.8
20260505013008 56 81 2.6 7.0 0.00 0.00 0.00 84 1011.8
20260505011551 57 96 2.6 7.0 0.00 0.00 0.00 82 1011.6
20260505010021 57 65 1.7 7.0 0.00 0.00 0.00 81 1011.6
20260505004600 58 155 2.6 7.8 0.00 0.00 0.00 79 1011.5
20260505003033 58 114 2.6 7.0 0.00 0.00 0.00 78 1011.5
20260505001510 58 67 2.6 7.8 0.00 0.00 0.00 77 1011.4
20260505000106 59 65 2.6 8.7 0.00 0.00 0.00 74 1011.2
20260504234523 60 84 2.6 10.4 0.00 0.00 0.00 71 1011.1
20260504233107 60 121 2.6 8.7 0.00 0.00 0.00 71 1011.0
20260504231533 61 113 3.5 9.6 0.00 0.00 0.00 71 1010.9
20260504230002 61 180 4.3 10.4 0.00 0.00 0.00 70 1011.0
20260504224538 62 130 3.5 8.7 0.00 0.00 0.00 67 1010.9
20260504223010 61 103 3.5 8.7 0.00 0.00 0.00 68 1010.9
20260504221551 61 91 2.6 7.0 0.00 0.00 0.00 70 1010.7
20260504220031 60 63 1.7 7.8 0.00 0.00 0.00 72 1010.8
20260504214616 60 89 0.9 5.2 0.00 0.00 0.00 75 1010.8
20260504213034 60 86 0.9 5.2 0.00 0.00 0.00 75 1010.9
20260504211505 61 75 1.7 5.2 0.00 0.00 0.00 74 1011.1
20260504210049 61 89 1.7 7.0 0.00 0.00 0.00 74 1011.2
20260504204523 60 186 2.6 9.6 0.00 0.00 0.00 76 1011.2
20260504203107 59 163 2.6 7.8 0.00 0.00 0.00 77 1011.4
20260504201529 60 158 2.6 7.8 0.00 0.00 0.00 75 1011.6
20260504200002 61 100 1.7 7.0 0.00 0.00 0.00 73 1011.8
20260504194547 62 181 0.9 7.0 0.00 0.00 0.00 73 1012.0
20260504193019 62 122 1.7 7.0 0.00 0.00 0.00 72 1012.2
20260504191604 62 80 1.7 6.1 0.00 0.00 0.00 71 1012.3
20260504190027 62 136 1.7 7.8 0.00 0.00 0.00 71 1012.4
20260504184638 63 33 1.7 6.1 0.00 0.00 0.00 71 1012.8
20260504183033 63 82 2.6 8.7 0.00 0.00 0.00 70 1012.7
20260504181507 63 217 1.7 5.2 0.00 0.00 0.00 70 1012.9
20260504180049 63 75 0.9 7.8 0.00 0.00 0.00 71 1012.9
20260504174515 63 166 1.7 6.1 0.00 0.00 0.00 68 1013.1
20260504173056 63 173 1.7 7.0 0.00 0.00 0.00 69 1013.1
20260504171522 63 186 1.7 8.7 0.00 0.00 0.00 69 1013.3
20260504110107 53 122 0.9 3.5 0.00 0.00 0.00 77 1015.7
20260504081515 50 98 0.0 4.3 0.00 0.00 0.00 71 1015.7